Tracking 28790 objects as of 19-Apr-2024
HD Live streaming from Space Station
objects crossing your sky now

FENGYUN 1C DEB

Track FENGYUN 1C DEB now!
10-day predictions


NORAD ID: 31994
Int'l Code: 1999-025CPX
Perigee: 798.5 km
Apogee: 1,036.2 km
Inclination: 98.6 °
Period: 103.2 minutes
Semi major axis: 7288 km
RCS: 0.0108 m2 (small)
Launch date: May 10, 1999
Source: People's Republic of China (PRC)
Launch site: Taiyaun Space Center, China (TSC)

Note: This is SATELLITE DEBRIS
Your satellite tracking list
Your tracking list is empty




NASA's NSSDC Master Catalog

Two Line Element Set (TLE):
1 31994U 99025CPX 24110.04653239  .00000429  00000-0  31003-3 0  9996
2 31994  98.5567 141.9088 0163039  23.1426 337.6974 13.95271623861642
Source of the keplerian elements: AFSPC